| time (UTC) | temp F | wind direction | speed MPH | gust MPH | rain 1hr in | rain 24hr in | rain mn in | humidity % | barometer mb |
| 20260503025030 | 74 | 191 | 1.0 | 3.0 | 0.00 | 2.96 | 3.02 | 99 | 1010.6 |
| 20260503024635 | 74 | 170 | 1.0 | 1.0 | 0.00 | 2.96 | 3.01 | 99 | 1010.3 |
| 20260503024029 | 74 | 204 | 1.0 | 2.0 | 0.00 | 2.96 | 3.02 | 99 | 1010.6 |
| 20260503023602 | 74 | 0 | 0.0 | 1.0 | 0.00 | 2.96 | 3.01 | 99 | 1010.2 |
| 20260503023046 | 74 | 90 | 1.0 | 3.0 | 0.00 | 2.96 | 3.02 | 99 | 1010.4 |
| 20260503022529 | 74 | 105 | 1.0 | 2.0 | 0.00 | 2.96 | 3.01 | 99 | 1010.1 |
| 20260503022023 | 74 | 132 | 2.0 | 4.0 | 0.00 | 2.96 | 3.02 | 99 | 1010.3 |
| 20260503021456 | 74 | 151 | 1.0 | 2.0 | 0.00 | 2.96 | 3.01 | 99 | 1010.0 |
| 20260503021021 | 74 | 129 | 2.0 | 4.0 | 0.00 | 2.96 | 3.02 | 99 | 1010.1 |
| 20260503020423 | 74 | 150 | 2.0 | 3.0 | 0.00 | 2.96 | 3.01 | 99 | 1010.0 |
| 20260503020039 | 74 | 159 | 2.0 | 3.0 | 0.00 | 2.96 | 3.02 | 99 | 1010.2 |
| 20260503015741 | 74 | 149 | 2.0 | 2.0 | 0.00 | 2.96 | 3.01 | 99 | 1009.8 |
| 20260503015350 | 74 | 149 | 2.0 | 2.0 | 0.00 | 2.96 | 3.01 | 99 | 1009.8 |
| 20260503015016 | 74 | 147 | 2.0 | 4.0 | 0.00 | 2.97 | 3.02 | 99 | 1010.3 |
| 20260503014317 | 74 | 149 | 1.0 | 3.0 | 0.00 | 2.96 | 3.01 | 99 | 1009.9 |
| 20260503014034 | 74 | 185 | 2.0 | 4.0 | 0.00 | 2.97 | 3.02 | 99 | 1010.2 |
| 20260503013244 | 74 | 150 | 2.0 | 2.0 | 0.00 | 2.96 | 3.01 | 99 | 1009.8 |
| 20260503013031 | 74 | 150 | 2.0 | 3.0 | 0.00 | 2.97 | 3.02 | 99 | 1010.2 |
| 20260503012029 | 74 | 121 | 2.0 | 4.0 | 0.00 | 2.97 | 3.02 | 99 | 1010.1 |
| 20260503011411 | 74 | 174 | 2.0 | 2.0 | 0.00 | 2.96 | 3.01 | 99 | 1009.7 |
| 20260503011027 | 74 | 124 | 2.0 | 4.0 | 0.00 | 2.97 | 3.02 | 99 | 1010.1 |
| 20260503011011 | 74 | 97 | 1.0 | 2.0 | 0.00 | 2.96 | 3.01 | 99 | 1009.9 |
| 20260503010811 | 74 | 159 | 3.0 | 3.0 | 0.00 | 2.96 | 3.01 | 99 | 1009.8 |
| 20260503010530 | 74 | 149 | 1.0 | 2.0 | 0.00 | 2.96 | 3.01 | 99 | 1009.8 |
| 20260503010027 | 74 | 98 | 2.0 | 4.0 | 0.00 | 2.96 | 3.02 | 99 | 1009.9 |
| 20260503005457 | 74 | 212 | 1.0 | 2.0 | 0.00 | 2.96 | 3.01 | 99 | 1009.8 |
| 20260503005025 | 74 | 71 | 2.0 | 4.0 | 0.00 | 2.96 | 3.02 | 99 | 1009.8 |
| 20260503004424 | 74 | 107 | 3.0 | 4.0 | 0.00 | 2.96 | 3.01 | 99 | 1009.4 |
| 20260503004022 | 74 | 122 | 2.0 | 4.0 | 0.01 | 2.96 | 3.02 | 99 | 1009.7 |
| 20260503003351 | 74 | 355 | 1.0 | 3.0 | 0.01 | 2.96 | 3.01 | 99 | 1009.6 |
| 20260503003040 | 75 | 83 | 2.0 | 5.0 | 0.02 | 2.97 | 3.02 | 99 | 1009.7 |
| 20260503002318 | 74 | 0 | 0.0 | 1.0 | 0.01 | 2.96 | 3.01 | 99 | 1009.5 |
| 20260503002017 | 75 | 163 | 2.0 | 4.0 | 0.02 | 2.97 | 3.02 | 99 | 1009.7 |
| 20260503001245 | 74 | 125 | 1.0 | 2.0 | 0.02 | 2.96 | 3.01 | 99 | 1009.5 |
| 20260503001035 | 74 | 96 | 1.0 | 3.0 | 0.02 | 2.97 | 3.02 | 99 | 1009.8 |
| 20260503000212 | 74 | 148 | 2.0 | 2.0 | 0.03 | 2.96 | 3.01 | 99 | 1009.6 |
| 20260503000033 | 74 | 170 | 2.0 | 3.0 | 0.03 | 2.97 | 3.01 | 99 | 1010.1 |
| 20260502235139 | 74 | 175 | 2.0 | 3.0 | 0.04 | 2.97 | 3.01 | 99 | 1009.7 |
| 20260502235030 | 75 | 135 | 2.0 | 4.0 | 0.05 | 2.97 | 3.01 | 99 | 1010.0 |
| 20260502234106 | 74 | 201 | 4.0 | 4.0 | 0.06 | 2.96 | 3.00 | 99 | 1009.7 |
| 20260502234048 | 75 | 161 | 2.0 | 4.0 | 0.06 | 2.97 | 3.01 | 99 | 1009.9 |
| 20260502233033 | 74 | 127 | 2.0 | 2.0 | 0.09 | 2.96 | 3.00 | 99 | 1009.7 |
| 20260502233026 | 75 | 136 | 2.0 | 5.0 | 0.08 | 2.96 | 3.00 | 99 | 1009.9 |
| 20260502232023 | 75 | 190 | 2.0 | 4.0 | 0.12 | 2.96 | 3.00 | 99 | 1010.0 |
| 20260502232000 | 74 | 207 | 1.0 | 2.0 | 0.14 | 2.95 | 2.99 | 99 | 1009.7 |
| 20260502231021 | 75 | 152 | 1.0 | 4.0 | 0.17 | 2.96 | 2.99 | 99 | 1010.1 |
| 20260502230927 | 75 | 147 | 2.0 | 3.0 | 0.17 | 2.95 | 2.99 | 99 | 1009.8 |
| 20260502230018 | 75 | 166 | 1.0 | 4.0 | 0.17 | 2.94 | 2.98 | 99 | 1010.1 |
| 20260502225854 | 75 | 126 | 1.0 | 2.0 | 0.17 | 2.94 | 2.98 | 99 | 1009.6 |
| 20260502225035 | 75 | 57 | 2.0 | 5.0 | 0.19 | 2.93 | 2.96 | 99 | 1010.0 |
| 20260502224821 | 75 | 42 | 1.0 | 2.0 | 0.24 | 2.92 | 2.96 | 99 | 1009.7 |
| 20260502224033 | 75 | 40 | 1.0 | 3.0 | 0.26 | 2.92 | 2.94 | 99 | 1009.9 |
| 20260502223748 | 75 | 66 | 1.0 | 2.0 | 0.26 | 2.90 | 2.93 | 99 | 1009.6 |
| 20260502223032 | 75 | 148 | 1.0 | 2.0 | 0.30 | 2.90 | 2.92 | 99 | 1009.7 |
| 20260502222715 | 75 | 169 | 1.0 | 2.0 | 0.37 | 2.88 | 2.90 | 99 | 1009.4 |
| 20260502222029 | 75 | 154 | 2.0 | 4.0 | 0.45 | 2.89 | 2.88 | 99 | 1009.8 |
| 20260502221642 | 75 | 176 | 3.0 | 3.0 | 0.52 | 3.11 | 2.85 | 99 | 1009.4 |
| 20260502221027 | 75 | 81 | 1.0 | 2.0 | 0.56 | 3.29 | 2.83 | 99 | 1010.0 |
| 20260502220609 | 75 | 84 | 1.0 | 2.0 | 0.54 | 3.61 | 2.81 | 99 | 1009.6 |
| 20260502220024 | 75 | 51 | 2.0 | 3.0 | 0.54 | 4.02 | 2.81 | 99 | 1009.9 |
| 20260502215536 | 75 | 0 | 0.0 | 2.0 | 0.51 | 4.38 | 2.80 | 99 | 1009.4 |
| 20260502215022 | 75 | 171 | 1.0 | 3.0 | 0.52 | 4.39 | 2.78 | 99 | 1009.9 |
| 20260502214503 | 75 | 246 | 1.0 | 1.0 | 0.49 | 4.45 | 2.70 | 99 | 1009.6 |
| 20260502214019 | 75 | 5 | 1.0 | 2.0 | 0.50 | 4.45 | 2.69 | 99 | 1010.1 |
| 20260502213430 | 75 | 0 | 0.0 | 1.0 | 0.62 | 4.42 | 2.65 | 99 | 1009.8 |
| 20260502213017 | 75 | 84 | 2.0 | 8.0 | 0.62 | 4.42 | 2.62 | 99 | 1010.0 |
| 20260502212357 | 75 | 86 | 2.0 | 3.0 | 0.98 | 4.22 | 2.49 | 99 | 1009.5 |
| 20260502212035 | 76 | 100 | 5.0 | 7.0 | 0.98 | 4.23 | 2.43 | 99 | 1009.9 |
| 20260502211557 | 76 | 106 | 5.0 | 8.0 | 1.55 | 4.07 | 2.32 | 99 | 1009.6 |
| 20260502211157 | 76 | 86 | 3.0 | 5.0 | 1.55 | 4.07 | 2.27 | 99 | 1009.6 |
| 20260502211032 | 76 | 85 | 5.0 | 7.0 | 1.55 | 4.07 | 2.27 | 99 | 1009.8 |
| 20260502210957 | 76 | 88 | 6.0 | 6.0 | 1.90 | 4.06 | 2.26 | 99 | 1009.5 |
| 20260502204111 | 76 | 48 | 2.0 | 3.0 | 2.00 | 3.99 | 2.14 | 99 | 1009.6 |
| 20260502203353 | 75 | 311 | 1.0 | 1.0 | 1.81 | 3.79 | 2.02 | 99 | 1009.4 |
| 20260502203029 | 76 | 74 | 3.0 | 5.0 | 1.81 | 3.80 | 1.94 | 98 | 1009.5 |
| 20260502202320 | 76 | 99 | 8.0 | 13.0 | 1.25 | 3.24 | 1.61 | 98 | 1009.1 |
| 20260502202027 | 76 | 87 | 7.0 | 13.0 | 1.26 | 3.25 | 1.39 | 97 | 1009.2 |
| 20260502201247 | 76 | 81 | 4.0 | 10.0 | 0.54 | 2.52 | 0.83 | 96 | 1008.8 |
| 20260502201025 | 77 | 87 | 8.0 | 17.0 | 0.55 | 2.52 | 0.67 | 95 | 1008.8 |
| 20260502200447 | 78 | 73 | 7.0 | 16.0 | 0.13 | 2.10 | 0.29 | 93 | 1008.3 |
| 20260502200047 | 79 | 110 | 6.0 | 10.0 | 0.12 | 2.09 | 0.24 | 93 | 1008.1 |
| 20260502200022 | 79 | 114 | 7.0 | 14.0 | 0.14 | 2.11 | 0.25 | 93 | 1008.6 |
| 20260502195847 | 79 | 112 | 7.0 | 10.0 | 0.12 | 2.09 | 0.24 | 92 | 1008.1 |
| 20260502195542 | 81 | 109 | 7.0 | 13.0 | 0.13 | 2.09 | 0.23 | 91 | 1008.2 |
| 20260502194520 | 82 | 114 | 1.0 | 2.0 | 0.06 | 2.02 | 0.16 | 91 | 1008.0 |
| 20260502193517 | 82 | 177 | 2.0 | 4.0 | 0.02 | 1.99 | 0.13 | 91 | 1008.3 |
| 20260502192535 | 82 | 132 | 2.0 | 4.0 | 0.04 | 1.99 | 0.13 | 91 | 1008.1 |
| 20260502191532 | 83 | 138 | 3.0 | 6.0 | 0.12 | 1.98 | 0.12 | 90 | 1008.1 |
| 20260502190530 | 83 | 170 | 4.0 | 7.0 | 0.11 | 1.97 | 0.11 | 88 | 1008.0 |
| 20260502185527 | 83 | 132 | 3.0 | 7.0 | 0.11 | 1.97 | 0.11 | 88 | 1008.1 |
| 20260502184546 | 83 | 159 | 3.0 | 6.0 | 0.11 | 1.97 | 0.11 | 90 | 1008.0 |
| 20260502183543 | 83 | 151 | 2.0 | 5.0 | 0.10 | 1.97 | 0.10 | 90 | 1008.3 |
| 20260502182540 | 85 | 151 | 3.0 | 6.0 | 0.09 | 1.96 | 0.09 | 86 | 1008.6 |
| 20260502181518 | 86 | 136 | 3.0 | 6.0 | 0.00 | 1.88 | 0.00 | 82 | 1008.7 |
| 20260502180536 | 86 | 178 | 3.0 | 6.0 | 0.00 | 1.92 | 0.00 | 81 | 1008.7 |
| 20260502123810 | 79 | 0 | 0.0 | 4.0 | 0.00 | 1.91 | 0.00 | 94 | 1007.9 |
| 20260502123034 | 79 | 47 | 2.0 | 4.0 | 0.00 | 1.92 | 0.00 | 95 | 1008.2 |
| 20260502122737 | 79 | 0 | 0.0 | 2.0 | 0.00 | 1.91 | 0.00 | 95 | 1007.7 |
| 20260502122032 | 79 | 75 | 2.0 | 5.0 | 0.00 | 1.92 | 0.00 | 95 | 1008.2 |
| 20260502121704 | 79 | 81 | 1.0 | 2.0 | 0.00 | 1.91 | 0.00 | 95 | 1007.8 |
| 20260502121030 | 79 | 26 | 3.0 | 6.0 | 0.00 | 1.92 | 0.00 | 95 | 1008.1 |
| 20260502115558 | 78 | 184 | 1.0 | 1.0 | 0.00 | 1.91 | 0.00 | 95 | 1007.3 |
| 20260502115024 | 79 | 41 | 1.0 | 3.0 | 0.00 | 1.92 | 0.00 | 95 | 1007.3 |
| 20260502114525 | 78 | 0 | 0.0 | 1.0 | 0.00 | 1.91 | 0.00 | 95 | 1006.9 |
| 20260502114042 | 79 | 27 | 3.0 | 5.0 | 0.00 | 1.92 | 0.00 | 95 | 1007.3 |
| 20260502113041 | 79 | 28 | 3.0 | 6.0 | 0.00 | 1.92 | 0.00 | 95 | 1007.4 |
| 20260502112017 | 79 | 27 | 2.0 | 4.0 | 0.00 | 1.92 | 0.00 | 96 | 1007.4 |
| 20260502111346 | 78 | 35 | 2.0 | 2.0 | 0.00 | 1.91 | 0.00 | 96 | 1007.1 |
| 20260502111056 | 79 | 26 | 2.0 | 3.0 | 0.00 | 1.92 | 0.00 | 96 | 1007.3 |
| 20260502110313 | 78 | 35 | 2.0 | 3.0 | 0.00 | 1.91 | 0.00 | 96 | 1007.0 |
| 20260502110033 | 79 | 33 | 2.0 | 3.0 | 0.00 | 1.92 | 0.00 | 96 | 1007.1 |
| 20260502105240 | 78 | 52 | 1.0 | 2.0 | 0.00 | 1.91 | 0.00 | 95 | 1006.9 |
| 20260502105031 | 79 | 49 | 2.0 | 4.0 | 0.00 | 1.92 | 0.00 | 95 | 1007.1 |
| 20260502104207 | 78 | 43 | 2.0 | 3.0 | 0.00 | 1.91 | 0.00 | 95 | 1006.5 |
| 20260502104029 | 79 | 352 | 3.0 | 5.0 | 0.00 | 1.92 | 0.00 | 95 | 1007.1 |
| 20260502103134 | 78 | 327 | 2.0 | 4.0 | 0.00 | 1.91 | 0.00 | 96 | 1006.8 |
| 20260502103026 | 79 | 330 | 4.0 | 7.0 | 0.00 | 1.92 | 0.00 | 96 | 1007.1 |
| 20260502102101 | 78 | 30 | 2.0 | 3.0 | 0.00 | 1.91 | 0.00 | 96 | 1006.8 |
| 20260502102024 | 79 | 10 | 3.0 | 6.0 | 0.00 | 1.92 | 0.00 | 96 | 1007.0 |
| 20260502101028 | 78 | 59 | 2.0 | 2.0 | 0.00 | 1.91 | 0.00 | 96 | 1006.6 |
| 20260502101021 | 79 | 36 | 3.0 | 6.0 | 0.00 | 1.92 | 0.00 | 96 | 1006.9 |
| 20260502091027 | 79 | 314 | 1.0 | 2.0 | 0.00 | 1.92 | 0.00 | 96 | 1006.0 |
| 20260502090710 | 78 | 0 | 0.0 | 1.0 | 0.00 | 1.91 | 0.00 | 96 | 1005.7 |
| 20260502071107 | 79 | 26 | 1.0 | 3.0 | 0.00 | 1.91 | 0.00 | 96 | 1006.7 |
| 20260502071018 | 79 | 43 | 2.0 | 5.0 | 0.00 | 1.92 | 0.00 | 96 | 1007.0 |
| 20260502070056 | 79 | 2 | 2.0 | 5.0 | 0.00 | 1.92 | 0.00 | 97 | 1007.2 |
| 20260502070034 | 79 | 355 | 4.0 | 4.0 | 0.00 | 1.91 | 0.00 | 97 | 1007.0 |
| 20260502065053 | 79 | 14 | 3.0 | 6.0 | 0.00 | 1.92 | 0.00 | 97 | 1007.2 |
| 20260502065001 | 79 | 8 | 1.0 | 2.0 | 0.00 | 1.91 | 0.00 | 97 | 1006.8 |
| 20260502064031 | 79 | 42 | 1.0 | 3.0 | 0.00 | 1.92 | 0.00 | 97 | 1007.5 |
| 20260502063928 | 79 | 19 | 2.0 | 2.0 | 0.00 | 1.91 | 0.00 | 97 | 1007.2 |
| 20260502063028 | 79 | 32 | 1.0 | 2.0 | 0.00 | 1.92 | 0.00 | 97 | 1007.5 |
| 20260502062855 | 78 | 55 | 1.0 | 2.0 | 0.00 | 1.91 | 0.00 | 97 | 1007.1 |
| 20260502062026 | 79 | 12 | 1.0 | 2.0 | 0.00 | 1.92 | 0.00 | 97 | 1007.6 |
| 20260502061822 | 79 | 0 | 0.0 | 1.0 | 0.00 | 1.91 | 0.00 | 97 | 1007.1 |
| 20260502061024 | 79 | 21 | 1.0 | 2.0 | 0.00 | 1.92 | 0.00 | 97 | 1007.8 |
| 20260502060749 | 79 | 336 | 1.0 | 2.0 | 0.00 | 1.91 | 0.00 | 97 | 1007.4 |
| 20260502060022 | 79 | 303 | 0.0 | 2.0 | 0.00 | 1.92 | 0.00 | 97 | 1007.8 |
| 20260502055716 | 79 | 0 | 0.0 | 1.0 | 0.00 | 1.91 | 0.00 | 97 | 1007.4 |
| 20260502055019 | 79 | 325 | 1.0 | 3.0 | 0.00 | 1.92 | 0.00 | 97 | 1007.7 |
| 20260502054643 | 79 | 334 | 2.0 | 2.0 | 0.00 | 1.91 | 0.00 | 97 | 1007.4 |
| 20260502054016 | 79 | 203 | 1.0 | 3.0 | 0.00 | 1.92 | 0.00 | 97 | 1007.7 |
| 20260502053610 | 79 | 197 | 1.0 | 2.0 | 0.00 | 1.91 | 0.00 | 97 | 1007.3 |
| 20260502053034 | 79 | 185 | 2.0 | 4.0 | 0.00 | 1.92 | 0.00 | 97 | 1007.8 |
| 20260502052537 | 79 | 257 | 1.0 | 1.0 | 0.00 | 1.91 | 0.00 | 97 | 1007.4 |
| 20260502052032 | 79 | 72 | 1.0 | 3.0 | 0.00 | 1.92 | 0.00 | 97 | 1007.8 |
| 20260502051504 | 79 | 92 | 1.0 | 1.0 | 0.00 | 1.91 | 0.00 | 97 | 1007.4 |
| 20260502051030 | 79 | 181 | 1.0 | 3.0 | 0.00 | 1.92 | 0.00 | 97 | 1007.6 |
| 20260502050431 | 79 | 0 | 0.0 | 1.0 | 0.00 | 1.91 | 0.00 | 97 | 1006.9 |
| 20260502050027 | 79 | 71 | 1.0 | 4.0 | 0.00 | 1.92 | 1.92 | 97 | 1007.2 |
| 20260502045358 | 79 | 0 | 0.0 | 2.0 | 0.00 | 1.91 | 1.91 | 97 | 1007.1 |
| 20260502045045 | 79 | 58 | 1.0 | 4.0 | 0.00 | 1.92 | 1.92 | 97 | 1007.1 |
| 20260502044325 | 79 | 0 | 0.0 | 1.0 | 0.00 | 1.91 | 1.91 | 96 | 1006.7 |
| 20260502044022 | 79 | 9 | 1.0 | 3.0 | 0.00 | 1.92 | 1.92 | 96 | 1007.5 |
| 20260502043252 | 79 | 58 | 1.0 | 2.0 | 0.00 | 1.91 | 1.91 | 96 | 1007.1 |
| 20260502043020 | 80 | 53 | 1.0 | 2.0 | 0.00 | 1.92 | 1.92 | 96 | 1007.4 |
| 20260502042219 | 79 | 353 | 3.0 | 3.0 | 0.00 | 1.91 | 1.91 | 96 | 1007.3 |
| 20260502042018 | 80 | 37 | 1.0 | 3.0 | 0.00 | 1.91 | 1.91 | 96 | 1007.7 |
| 20260502041146 | 79 | 318 | 3.0 | 4.0 | 0.00 | 1.91 | 1.91 | 96 | 1007.6 |
| 20260502041036 | 79 | 344 | 2.0 | 6.0 | 0.00 | 1.91 | 1.91 | 96 | 1008.1 |
| 20260502040113 | 79 | 66 | 1.0 | 2.0 | 0.00 | 1.91 | 1.91 | 96 | 1007.8 |
| 20260502040032 | 80 | 25 | 2.0 | 4.0 | 0.00 | 1.91 | 1.91 | 96 | 1008.1 |
| 20260502035040 | 79 | 53 | 2.0 | 2.0 | 0.00 | 1.91 | 1.91 | 96 | 1007.9 |
| 20260502035031 | 80 | 35 | 2.0 | 4.0 | 0.00 | 1.91 | 1.91 | 96 | 1008.2 |
| 20260502034028 | 80 | 26 | 2.0 | 4.0 | 0.00 | 1.91 | 1.91 | 96 | 1008.0 |
| 20260502034007 | 79 | 32 | 2.0 | 2.0 | 0.00 | 1.91 | 1.91 | 96 | 1007.8 |
| 20260502033046 | 80 | 16 | 1.0 | 4.0 | 0.00 | 1.91 | 1.91 | 95 | 1008.2 |
| 20260502032934 | 79 | 320 | 3.0 | 4.0 | 0.00 | 1.91 | 1.91 | 95 | 1007.9 |
| 20260502032023 | 80 | 51 | 1.0 | 3.0 | 0.00 | 1.91 | 1.91 | 96 | 1008.4 |
| 20260502031901 | 79 | 0 | 0.0 | 1.0 | 0.00 | 1.91 | 1.91 | 96 | 1007.9 |
| 20260502031021 | 80 | 75 | 1.0 | 3.0 | 0.00 | 1.91 | 1.91 | 95 | 1008.6 |
| 20260502030828 | 79 | 246 | 1.0 | 1.0 | 0.00 | 1.91 | 1.91 | 95 | 1008.3 |
| 20260502030018 | 80 | 28 | 2.0 | 5.0 | 0.00 | 1.91 | 1.91 | 95 | 1008.5 |
| 20260502025755 | 79 | 60 | 2.0 | 4.0 | 0.00 | 1.91 | 1.91 | 95 | 1008.1 |